Wind_Speed
81 72 77 82 88 92 95 86 90 93 89 87 93 91 97 91 94 94 93 95 99 100 102 98 96 97 97 94 91 104 99 96 98 100 104 107 107 104 101 88 85 88 79 73 72 76 73
83 83 91 95 104 100 101 97 102 96 99 95 98 103 101 100 98 99 105 103 100 107 103 98 100 105 106 93 103 102 102 102 104 103 102 105 103 106 103 90 89 88 85 78 73 74 76
93 96 99 102 103 103 96 94 99 103 104 110 107 108 102 107 105 109 104 106 105 101 100 102 105 111 110 103 110 100 102 105 109 113 102 105 107 107 107 100 94 88 86 82 78 77 75
98 101 101 97 100 100 101 106 112 112 109 111 112 113 108 106 106 108 105 106 106 102 103 106 115 126 120 107 98 107 114 109 110 107 108 101 103 109 108 105 88 86 84 79 73 75 71
101 100 105 102 104 110 110 111 111 106 106 109 112 111 113 108 109 106 109 112 101 107 112 123 122 120 110 102 110 122 123 114 118 111 107 108 112 105 101 98 83 84 85 79 73 71 77
101 105 106 107 108 108 107 105 108 110 110 109 108 109 111 111 110 108 105 106 114 118 120 120 114 119 112 117 121 125 123 125 119 115 114 111 111 110 104 95 79 83 84 83 75 72 82
100 103 104 103 102 103 108 109 108 107 107 103 105 109 111 108 108 108 109 114 126 130 122 114 117 122 123 128 132 129 127 132 132 126 119 117 117 115 101 96 94 93 87 77 71 73 79
101 100 102 104 102 103 105 105 102 102 103 105 105 105 105 106 111 115 126 128 123 124 119 123 128 132 132 136 136 130 136 136 134 123 126 135 131 118 108 106 104 98 100 77 67 75 83
92 98 99 97 93 94 95 96 98 99 99 101 105 105 111 116 130 131 129 125 128 126 129 121 128 138 132 127 116 101 116 107 102 104 99 102 82 106 113 119 119 114 106 92 72 71 77
81 83 87 85 89 93 97 94 98 99 106 107 104 111 117 116 122 127 126 127 131 139 137 126 125 120 115 112 104 106 111 110 109 102 98 98 74 78 72 82 90 89 87 78 62 70 71
83 85 88 88 88 87 93 97 95 97 100 107 111 109 114 127 131 123 129 133 135 133 129 120 116 112 105 110 114 123 123 121 114 109 113 85 84 84 83 87 74 72 86 85 72 88 78
76 78 80 84 87 85 85 89 92 96 102 106 110 115 119 131 129 135 134 140 136 132 125 115 119 116 119 122 122 120 119 120 116 114 111 90 81 88 81 85 80 96 103 91 86 79 85
78 79 79 82 85 84 88 92 96 101 104 109 114 124 136 141 133 136 132 126 126 121 122 122 128 125 124 120 122 114 111 113 111 110 103 96 79 81 89 94 90 80 94 81 83 72 73
77 80 82 85 86 90 93 96 102 104 109 112 124 133 129 133 131 128 121 117 118 124 130 130 128 119 117 107 102 97 95 97 99 99 94 93 85 82 91 94 84 86 78 75 79 74 76
74 79 83 83 90 94 95 99 103 105 112 122 134 127 130 131 123 113 113 120 126 128 124 124 116 103 95 90 85 82 82 84 86 86 85 83 77 81 85 87 86 79 80 75 83 92 88
84 88 86 89 86 88 96 108 109 117 119 130 132 131 116 114 106 113 120 123 119 117 117 109 97 87 78 79 71 71 72 74 76 70 79 75 70 74 78 87 87 88 87 84 104 107 98
83 87 90 89 89 95 104 112 115 119 128 132 128 114 106 104 110 115 113 111 107 111 103 92 83 76 68 66 61 61 63 67 68 66 67 68 59 68 69 77 81 87 89 90 87 101 113
94 94 100 101 99 108 116 117 121 129 135 134 128 100 102 107 106 105 105 104 103 99 90 79 72 68 60 55 56 55 57 57 63 61 65 65 61 66 68 71 80 77 89 92 95 96 107
105 112 112 124 121 121 126 129 134 126 113 98 94 100 100 98 97 99 102 102 98 85 78 70 64 59 52 50 47 48 50 51 53 56 57 59 66 66 70 71 76 86 88 88 97 99 102
123 117 121 124 123 122 119 111 104 95 90 90 94 91 90 90 93 94 96 98 92 80 69 61 57 50 45 44 40 45 43 48 46 51 53 58 64 68 67 66 69 79 82 88 93 97 99
121 128 125 116 113 106 100 86 79 81 86 85 83 82 83 85 90 92 95 93 83 71 62 54 50 44 40 37 36 39 38 42 45 43 48 57 60 60 62 66 70 80 88 89 96 99 98
124 107 108 102 92 81 71 71 75 79 77 78 78 79 80 84 87 87 91 93 78 67 56 50 43 39 34 34 31 31 31 31 35 34 35 48 54 57 63 66 67 73 76 77 85 93 102
82 82 78 70 62 62 65 68 70 71 71 74 74 74 76 81 84 83 87 89 74 61 54 46 40 34 28 30 28 26 28 29 36 35 39 47 53 58 66 65 70 78 84 87 88 92 98
60 56 55 55 56 60 62 65 67 67 71 69 69 70 74 79 80 79 82 86 72 61 51 43 36 31 26 26 24 22 27 31 35 35 41 49 50 56 64 67 72 81 86 90 98 91 93
49 49 51 53 55 58 61 63 63 67 64 63 65 67 72 75 76 78 79 83 71 58 49 41 35 28 24 22 22 18 24 26 28 27 31 38 43 49 57 58 64 74 78 86 90 93 103
47 49 50 52 55 56 58 60 63 59 58 58 61 66 69 71 71 72 75 75 70 56 48 41 34 27 23 21 21 20 21 19 20 24 27 35 42 46 51 53 57 66 76 85 87 92 96
46 48 50 52 54 55 58 57 53 52 53 54 58 63 67 67 67 67 69 70 73 57 47 41 34 28 23 20 20 19 18 15 20 23 24 27 34 41 44 48 53 61 65 73 80 86 89
45 47 51 51 50 51 48 46 44 45 47 51 56 60 63 63 65 67 69 68 72 61 52 44 37 30 24 21 18 18 17 17 21 22 22 24 27 34 38 44 50 56 60 62 70 75 78
44 41 40 41 42 39 38 36 37 39 43 50 55 58 61 63 64 65 67 67 69 67 55 48 42 34 26 21 18 16 14 13 14 17 19 22 25 28 33 37 40 46 51 53 57 61 63
Wind_Direction
258 254 253 258 261 260 266 263 270 273 274 270 277 281 280 279 281 282 281 283 284 283 287 285 282 279 280 283 289 288 284 281 284 287 282 280 281 281 280 279 275 277 276 278 279 280 279
252 250 251 257 261 258 260 259 268 273 272 272 277 280 280 279 277 280 284 280 286 290 285 280 279 280 281 288 289 283 286 288 283 285 280 279 279 279 282 283 275 276 277 279 277 280 278
246 250 253 254 256 260 257 259 268 271 273 275 276 277 276 276 276 282 282 285 288 287 283 282 282 285 284 295 291 284 288 287 285 282 279 277 276 277 279 279 276 275 277 275 278 279 279
250 250 251 250 251 253 257 263 268 271 274 274 279 280 277 277 277 283 283 288 287 284 281 281 284 289 287 292 283 285 285 281 281 282 284 279 276 276 277 276 273 272 274 273 278 272 275
250 252 254 251 254 256 262 265 268 272 274 278 280 280 279 281 282 282 285 287 283 285 288 291 295 292 292 287 282 281 285 285 285 283 279 281 281 279 275 276 268 271 267 269 270 267 268
249 252 252 254 256 259 261 264 270 274 276 276 275 277 279 281 285 287 286 287 289 292 292 293 290 288 293 284 284 283 283 285 286 283 279 281 276 274 273 279 284 271 269 261 266 267 265
254 250 253 254 256 260 264 268 271 274 273 274 275 277 279 281 285 285 285 285 289 290 291 289 288 287 289 287 283 282 283 285 283 280 280 276 270 272 274 277 272 268 271 265 265 263 262
249 251 257 258 260 263 267 269 271 271 273 273 275 276 275 279 284 284 286 292 289 286 290 293 291 289 288 286 285 286 280 279 279 280 276 272 273 273 271 269 271 269 272 274 263 265 260
251 253 254 258 260 262 266 267 269 271 271 272 273 274 277 279 286 292 296 294 290 288 293 293 288 288 287 285 286 289 281 282 280 274 276 276 281 271 270 268 271 272 273 276 263 254 252
247 251 254 258 263 263 264 267 266 268 275 273 273 278 281 288 292 293 294 291 291 291 290 292 288 287 287 289 289 286 283 280 277 280 276 276 276 273 264 258 264 271 266 266 262 261 250
252 254 260 260 260 263 267 268 267 268 273 273 276 285 290 294 296 292 292 292 292 290 291 293 293 290 291 290 288 284 284 282 282 279 273 274 266 265 255 260 258 241 250 257 250 254 264
256 257 262 266 269 267 268 271 272 277 281 284 286 289 291 293 292 294 294 295 295 293 295 295 292 294 293 292 289 286 281 277 275 274 273 274 267 258 263 259 257 237 249 256 259 265 262
254 258 260 263 266 269 272 276 278 280 284 287 289 291 292 294 296 297 296 294 295 296 295 296 295 295 293 289 284 282 279 276 272 268 269 267 261 254 252 254 253 246 244 246 252 252 256
256 258 260 264 268 272 274 277 280 284 290 293 293 294 295 298 297 295 296 298 298 296 296 295 295 295 291 286 282 278 274 271 269 267 264 259 257 251 248 249 248 246 242 238 243 237 249
253 256 260 265 271 274 276 279 285 287 289 290 295 294 295 297 295 297 298 297 296 297 297 296 297 295 288 282 278 275 270 266 263 264 261 258 252 250 248 250 245 244 241 224 230 225 238
256 260 263 268 270 275 278 283 285 289 289 291 297 297 297 295 297 297 296 296 298 301 300 300 297 292 286 281 277 273 266 262 260 257 258 255 249 248 248 244 240 236 237 228 229 229 237
258 262 264 268 273 279 280 283 287 286 290 291 298 297 295 297 297 296 298 301 305 305 303 300 297 292 287 281 276 267 262 259 257 253 252 255 249 248 243 243 237 233 234 237 235 234 233
262 266 270 274 276 281 283 286 287 291 291 291 293 294 296 296 298 301 303 307 311 309 305 302 297 293 289 283 276 269 260 255 254 251 248 247 245 241 240 236 237 233 232 233 233 236 234
267 270 273 276 279 279 283 285 290 291 292 291 292 295 296 299 302 305 308 313 315 311 307 304 298 295 291 283 276 267 261 256 248 250 247 243 241 237 238 230 233 233 233 230 232 233 235
270 269 277 275 280 283 286 288 285 288 290 292 293 298 301 304 307 310 312 319 319 314 312 307 300 296 289 281 276 270 262 256 251 240 237 236 235 235 234 229 226 229 231 231 234 235 236
270 274 275 277 284 284 285 282 285 288 290 294 300 302 305 309 312 314 317 324 322 318 315 310 303 297 289 284 272 265 260 255 252 245 236 237 235 235 234 233 227 226 229 228 231 232 230
272 275 278 277 280 278 279 283 288 290 295 300 303 306 310 313 314 317 321 327 326 322 320 315 307 301 295 284 277 268 265 264 261 254 241 237 238 235 233 233 232 232 233 231 231 232 232
272 271 273 274 274 278 283 285 291 296 299 302 305 309 311 313 317 320 325 331 330 329 326 322 313 307 299 285 278 266 256 245 242 235 227 225 224 229 233 232 228 228 228 229 231 232 232
266 266 266 274 279 280 285 291 296 298 301 303 308 310 312 315 319 323 328 335 334 333 331 327 318 311 303 292 285 270 255 250 247 239 226 231 227 223 225 227 226 227 227 228 230 234 233
259 267 273 276 281 286 290 295 297 298 301 306 308 310 313 318 322 326 330 337 340 336 336 332 327 321 313 300 293 274 264 259 254 251 243 234 231 230 229 228 227 230 231 233 234 232 228
268 272 278 282 286 290 293 296 296 298 303 307 309 312 316 322 325 328 334 339 345 343 341 339 336 330 323 310 294 281 270 266 258 251 243 234 233 231 230 230 226 229 230 234 235 236 235
274 278 282 286 289 292 294 294 296 301 305 307 311 315 320 326 330 335 338 342 349 349 350 347 345 340 334 322 307 292 278 259 252 247 241 238 240 237 233 230 228 231 230 232 236 237 240
279 283 285 287 290 292 292 295 300 304 307 308 313 319 324 330 336 343 343 346 351 354 354 356 353 348 344 335 320 307 299 280 264 258 252 247 240 239 239 236 233 233 235 232 235 238 239
282 283 287 289 291 293 295 300 305 307 308 311 319 325 329 334 340 344 347 349 353 358 358 357 359 354 351 348 335 322 311 295 286 279 265 257 255 250 247 245 243 243 246 246 245 245 246
Height
10729 10733 10737 10737 10737 10732 10731 10731 10728 10728 10731 10734 10736 10736 10736 10735 10732 10732 10730 10728 10724 10722 10717 10712 10707 10702 10706 10723 10740 10710 10712 10711 10707 10701 10694 10684 10685 10675 10684 10688 10684 10680 10695 10695 10697 10692 10690
10711 10713 10713 10716 10715 10713 10711 10713 10709 10712 10717 10717 10718 10719 10718 10714 10712 10711 10711 10709 10705 10702 10696 10691 10684 10678 10685 10716 10706 10693 10685 10687 10684 10680 10675 10664 10664 10649 10661 10667 10664 10665 10676 10684 10683 10678 10676
10689 10692 10693 10696 10696 10697 10696 10696 10693 10694 10699 10701 10702 10700 10699 10697 10693 10693 10690 10686 10682 10676 10671 10669 10664 10656 10667 10710 10679 10679 10670 10661 10651 10644 10649 10647 10643 10634 10638 10647 10647 10652 10657 10664 10670 10663 10661
10673 10675 10675 10676 10678 10679 10678 10678 10678 10679 10680 10679 10678 10675 10676 10674 10672 10670 10667 10663 10661 10657 10654 10651 10645 10632 10650 10666 10656 10649 10636 10636 10630 10624 10622 10621 10618 10610 10615 10619 10632 10631 10636 10648 10651 10642 10640
10656 10655 10657 10660 10662 10662 10664 10665 10663 10662 10662 10660 10657 10656 10653 10651 10650 10648 10648 10646 10639 10631 10631 10624 10619 10599 10625 10636 10624 10604 10599 10607 10600 10601 10606 10591 10583 10587 10588 10595 10605 10619 10620 10624 10630 10626 10612
10636 10638 10641 10646 10646 10648 10648 10649 10647 10645 10641 10640 10640 10638 10634 10630 10628 10624 10623 10620 10610 10605 10603 10601 10595 10577 10603 10594 10584 10574 10576 10570 10573 10568 10565 10568 10560 10553 10557 10581 10587 10588 10585 10601 10615 10607 10602
10621 10621 10626 10629 10630 10631 10630 10630 10629 10628 10624 10624 10624 10622 10617 10612 10609 10606 10604 10598 10591 10582 10582 10578 10566 10560 10567 10546 10536 10545 10545 10539 10529 10529 10538 10540 10524 10526 10551 10559 10551 10554 10561 10583 10605 10586 10580
10605 10605 10609 10610 10612 10612 10612 10613 10613 10612 10610 10609 10607 10603 10598 10594 10591 10583 10576 10571 10558 10547 10560 10554 10549 10521 10521 10506 10494 10515 10505 10494 10494 10497 10499 10487 10492 10524 10524 10522 10523 10533 10543 10564 10583 10564 10557
10587 10590 10592 10595 10596 10598 10600 10597 10596 10597 10594 10592 10590 10584 10578 10571 10564 10553 10545 10536 10524 10515 10520 10547 10516 10485 10469 10461 10475 10502 10448 10467 10465 10452 10466 10461 10494 10473 10490 10494 10498 10509 10521 10547 10544 10533 10533
10570 10576 10577 10578 10580 10582 10583 10584 10581 10579 10579 10575 10570 10562 10559 10545 10536 10526 10519 10504 10491 10478 10478 10502 10470 10450 10446 10436 10447 10435 10430 10425 10424 10435 10442 10433 10474 10460 10464 10468 10477 10484 10509 10517 10517 10516 10523
10558 10560 10563 10562 10564 10567 10569 10569 10565 10565 10562 10556 10549 10539 10531 10525 10507 10497 10486 10472 10461 10443 10438 10444 10426 10414 10425 10415 10397 10399 10391 10390 10388 10402 10390 10425 10434 10438 10443 10455 10461 10480 10474 10488 10497 10496 10501
10543 10543 10548 10550 10553 10552 10553 10550 10546 10542 10539 10533 10525 10515 10504 10496 10482 10470 10453 10438 10425 10415 10405 10408 10387 10392 10380 10367 10358 10351 10354 10346 10353 10355 10360 10383 10407 10404 10426 10426 10434 10446 10449 10461 10471 10478 10467
10528 10534 10536 10537 10537 10536 10534 10532 10529 10524 10518 10511 10503 10494 10484 10469 10453 10441 10425 10411 10400 10386 10372 10367 10349 10353 10341 10338 10311 10314 10311 10307 10313 10315 10332 10347 10369 10380 10383 10387 10402 10416 10430 10440 10449 10453 10461
10517 10520 10521 10522 10522 10519 10519 10515 10511 10505 10500 10492 10482 10468 10458 10446 10428 10412 10400 10385 10374 10357 10344 10330 10317 10319 10292 10286 10276 10276 10276 10274 10270 10278 10296 10308 10326 10339 10348 10350 10382 10389 10403 10416 10427 10441 10452
10503 10504 10507 10508 10509 10508 10503 10500 10495 10486 10480 10473 10462 10448 10433 10419 10404 10389 10376 10361 10347 10330 10316 10294 10281 10272 10257 10247 10249 10249 10243 10242 10243 10248 10259 10274 10296 10304 10317 10336 10352 10381 10375 10403 10408 10416 10423
10488 10491 10491 10493 10492 10490 10487 10486 10480 10471 10459 10451 10440 10426 10412 10397 10382 10369 10356 10341 10322 10299 10277 10259 10246 10238 10229 10213 10223 10221 10219 10218 10219 10234 10231 10244 10269 10279 10290 10301 10318 10335 10354 10367 10376 10386 10397
10478 10480 10478 10476 10477 10475 10471 10466 10463 10452 10442 10432 10420 10406 10395 10379 10366 10348 10332 10315 10297 10270 10247 10231 10217 10208 10202 10193 10196 10195 10195 10195 10197 10206 10214 10222 10246 10254 10270 10277 10291 10309 10327 10341 10355 10364 10375
10466 10469 10470 10464 10462 10458 10457 10451 10443 10434 10424 10410 10407 10390 10377 10364 10345 10328 10308 10289 10270 10244 10219 10205 10192 10182 10179 10176 10172 10173 10174 10179 10176 10186 10193 10203 10222 10234 10246 10257 10267 10287 10301 10315 10326 10335 10344
10453 10451 10452 10449 10447 10444 10441 10435 10427 10418 10405 10393 10387 10377 10360 10345 10328 10308 10285 10265 10242 10222 10199 10184 10170 10164 10161 10155 10155 10153 10154 10162 10168 10170 10180 10191 10199 10214 10222 10238 10248 10259 10271 10287 10297 10309 10321
10434 10438 10438 10436 10434 10431 10426 10418 10408 10404 10392 10382 10374 10359 10343 10323 10306 10289 10272 10247 10221 10195 10181 10165 10153 10149 10143 10138 10140 10136 10141 10141 10151 10160 10165 10172 10178 10188 10201 10218 10230 10236 10247 10264 10272 10287 10297
10423 10426 10426 10423 10420 10420 10410 10402 10396 10389 10380 10369 10357 10344 10329 10309 10288 10269 10248 10230 10205 10181 10164 10151 10138 10133 10129 10126 10125 10123 10128 10130 10133 10143 10152 10154 10160 10172 10185 10198 10213 10222 10226 10243 10251 10260 10271
10416 10412 10409 10409 10406 10401 10398 10390 10384 10376 10366 10354 10342 10327 10311 10293 10276 10257 10238 10212 10189 10165 10152 10137 10127 10121 10118 10114 10114 10115 10118 10123 10126 10132 10143 10143 10148 10159 10168 10178 10191 10203 10210 10222 10230 10236 10244
10401 10397 10397 10394 10391 10388 10385 10381 10373 10363 10353 10340 10328 10315 10299 10282 10263 10245 10224 10201 10177 10157 10139 10126 10117 10111 10108 10103 10103 10105 10106 10109 10109 10119 10122 10127 10137 10146 10151 10160 10175 10185 10193 10203 10211 10215 10223
10387 10386 10384 10382 10381 10379 10374 10367 10359 10350 10340 10328 10315 10303 10288 10270 10253 10235 10215 10192 10167 10147 10132 10120 10110 10103 10100 10095 10095 10097 10096 10097 10100 10106 10113 10116 10126 10135 10138 10147 10157 10157 10171 10180 10180 10193 10198
10376 10375 10375 10374 10371 10366 10361 10353 10345 10337 10328 10317 10305 10293 10278 10262 10243 10223 10205 10184 10160 10141 10126 10113 10103 10096 10092 10089 10087 10089 10089 10090 10093 10099 10105 10110 10116 10122 10125 10136 10146 10145 10157 10160 10165 10172 10177
10367 10366 10365 10362 10358 10354 10347 10340 10333 10325 10316 10306 10295 10282 10268 10254 10237 10219 10198 10181 10158 10137 10121 10109 10100 10092 10087 10083 10080 10081 10081 10083 10087 10088 10093 10097 10101 10107 10113 10122 10132 10134 10140 10140 10147 10155 10164
10357 10355 10353 10350 10346 10341 10335 10329 10321 10314 10306 10296 10284 10272 10259 10245 10230 10213 10195 10176 10154 10135 10120 10107 10097 10089 10083 10080 10076 10075 10076 10078 10078 10079 10084 10088 10091 10095 10103 10109 10115 10116 10125 10129 10133 10137 10140
10345 10343 10341 10337 10333 10329 10324 10318 10312 10305 10296 10285 10275 10265 10252 10240 10222 10204 10186 10169 10152 10133 10117 10106 10096 10087 10081 10077 10074 10072 10072 10073 10072 10074 10077 10080 10082 10085 10090 10095 10098 10101 10106 10114 10117 10118 10127
10334 10332 10329 10325 10322 10318 10313 10308 10303 10296 10287 10277 10268 10257 10245 10232 10218 10202 10185 10168 10149 10133 10118 10106 10096 10088 10081 10075 10072 10070 10069 10069 10069 10071 10073 10073 10074 10076 10079 10083 10088 10093 10095 10100 10104 10107 10111